カタログに戻る

COSMOS 2554

運用中ナビゲーションLEO
NORAD 52202·PAYLOAD·🇷🇺 Russia

打ち上げ Apr 7, 2022 から Plesetsk Cosmodrome

Loading…

次のパス (今後24時間)

TLE

最新Source: Space-Track

元期: Sep 14, 2026, 22:14 UTC

1 52202U 22036A   26257.92647137 -.00000057  00000-0  13014-4 0  9991
2 52202  67.1507  10.5833 0004932 273.9730  86.0790 13.96673652226488

AllMySatでCOSMOS 2554をリアルタイム追跡

Download on the App Store